Starlink 6149

operational
NORAD ID: 57122 Int'l Des: 2023-090 Owner: SPXS Country: US Constellation: starlink
LEOCIRCULAR

Über Starlink 6149

Beschreibung wird geladen...

Live-Position

3D-Globus wird geladen...

Nächste Überflüge

Höhenverlauf

Altitude vs Time

uPlot chart will show altitude changes over time

Zweizeiliger Elementsatz

1 57122U 23090X 25306.10333931 .00000686 00000-0 65838-4 0 9994
2 57122 43.0010 247.6963 0000829 279.0771 80.9978 15.02533368131222
Epoch: 2. Nov. 2025 • Age: 20 hours

Aktueller Status

Höhe 559.4 km
Geschwindigkeit 7.59 km/s
Subsatellitenpunkt 24.77°N, 17.47°E
Startdatum 23. Juni 2023
Alter 2.3 years
Typ internet

Technische Details

Klassifizierung Payload
Masse 305.00 kg
Trockenmasse 290.00 kg
Gesamtmasse 305.00 kg
Länge 0.20 m
Durchmesser 2.80 m
Spannweite 9.00 m
Form Box + pan
Hersteller SPXS
Bus-Typ Starlink
Phasenstatus In Orbit
Besitzer/Staat SPXS/US

Große Konstellationen

Loading constellations...